Weather History for EGUB - March, 2014

Change the Weather History Date:

Sunday, March 2, 2014

  Actual Average Record
Temperature  
Mean Temperature 39 °F -  
Max Temperature 48 °F 49 °F 59 °F (1999)
Min Temperature 30 °F 35 °F 17 °F (2004)
Degree Days  
Heating Degree Days 26    
Moisture  
Dew Point 41 °F    
Average Humidity 87    
Maximum Humidity 100    
Minimum Humidity 67    
Precipitation  
Precipitation 0.04 in - - ()
Sea Level Pressure  
Sea Level Pressure 29.31 in    
Wind  
Wind Speed 13 mph ()    
Max Wind Speed 24 mph    
Max Gust Speed -    
Visibility 8.2 miles    
Events Rain    
Averages and records for this station are not official NWS values.
T = Trace of Precipitation, MM = Missing Value Source: Averaged Metar Reports

Daily Weather History Graph

Daily Weather History Graph

Search for Another Location

Airport or City:

Trip Planner

Search our weather history database for the weather conditions in past years. The results will help you decide how hot, cold, wet, or windy it might be!

Date:

Astronomy

Mar. 02, 2014 Rise Set
Actual Time 6:47 AM GMT 5:46 PM GMT
Civil Twilight 6:14 AM GMT 6:19 PM GMT
Nautical Twilight 5:35 AM GMT 6:58 PM GMT
Astronomical Twilight 4:56 AM GMT 7:37 PM GMT
Moon 6:57 AM GMT (3/2) 7:41 PM GMT (3/2)
Length of Visible Light 12h 05m
Length of Day
10h 58m
New Moon, 2% of the Moon is Illuminated
Mar 2
New Moon
Mar 8
First Quarter
Mar 16
Full
Mar 24
Last Quarter
Mar 30
New

Hourly Weather History & Observations

Time (GMT) Temp. Windchill Dew Point Humidity Pressure Visibility Wind Dir Wind Speed Gust Speed Precip Events Conditions
12:00 AM 35 °F - 32 °F 85% 29.57 in 9 mi SSE 9.2 mph - -  
12:50 AM 35.6 °F 28.6 °F 33.8 °F 93% 29.53 in 6.2 mi SSE 9.2 mph - N/A   Mostly Cloudy
1:00 AM 36 °F - 34 °F 87% 29.57 in 9 mi SSE 9.2 mph - -   Mostly Cloudy
1:50 AM 39.2 °F 32.5 °F 35.6 °F 87% 29.53 in 6.2 mi SSE 10.4 mph - N/A   Mostly Cloudy
2:00 AM 39 °F - 36 °F 86% 29.55 in 9 mi SSE 10.4 mph - -   Mostly Cloudy
2:50 AM 39.2 °F 32.0 °F 37.4 °F 93% 29.50 in 6.2 mi SSE 11.5 mph - N/A   Overcast
3:00 AM 40 °F - 37 °F 87% 29.53 in 10 mi SSE 11.5 mph - -   Overcast
3:50 AM 41.0 °F 35.2 °F 39.2 °F 93% 29.50 in 6.2 mi SSE 9.2 mph - N/A   Mostly Cloudy
4:00 AM 41 °F - 38 °F 86% 29.53 in 11 mi SSE 9.2 mph - -   Mostly Cloudy
4:50 AM 41.0 °F 33.5 °F 39.2 °F 93% 29.50 in 6.2 mi SSE 13.8 mph - N/A   Mostly Cloudy
5:00 AM 42 °F - 39 °F 85% 29.52 in 12 mi SSE 13.8 mph - -   Scattered Clouds
5:50 AM 42.8 °F 36.2 °F 41.0 °F 93% 29.50 in 6.2 mi SSE 12.7 mph - N/A   Mostly Cloudy
6:00 AM 43 °F - 40 °F 85% 29.51 in 12 mi SSE 12.7 mph - -   Mostly Cloudy
6:50 AM 44.6 °F 37.8 °F 41.0 °F 87% 29.47 in 6.2 mi SSE 15.0 mph - N/A   Mostly Cloudy
7:00 AM 44 °F - 41 °F 86% 29.49 in 12 mi SSE 15.0 mph - -   Mostly Cloudy
7:50 AM 44.6 °F 38.4 °F 41.0 °F 87% 29.44 in 6.2 mi SSE 12.7 mph - N/A   Mostly Cloudy
8:00 AM 45 °F - 42 °F 84% 29.48 in 12 mi SSE 12.7 mph - -   Mostly Cloudy
8:50 AM 46.4 °F 39.8 °F 42.8 °F 87% 29.44 in 6.2 mi SSE 16.1 mph - N/A   Mostly Cloudy
9:00 AM 46 °F - 42 °F 82% 29.46 in 14 mi SSE 16.1 mph - -   Mostly Cloudy
9:50 AM 48.2 °F - 42.8 °F 82% 29.42 in 6.2 mi SSE 16.1 mph - N/A   Mostly Cloudy
10:00 AM 48 °F - 42 °F 74% 29.44 in 16 mi SSE 16.1 mph - -   Mostly Cloudy
10:50 AM 48.2 °F - 41.0 °F 76% 29.42 in 6.2 mi SSE 19.6 mph - N/A   Mostly Cloudy
11:00 AM 48 °F - 40 °F 67% 29.42 in 17 mi SSE 19.6 mph - -   Mostly Cloudy
11:50 AM 48.2 °F - 41.0 °F 76% 29.39 in 6.2 mi SSE 20.7 mph - N/A   Mostly Cloudy
12:00 PM 48 °F - 41 °F 69% 29.40 in 16 mi SSE 20.7 mph - -   Overcast
12:50 PM 48.2 °F - 42.8 °F 82% 29.33 in 6.2 mi SSE 23.0 mph - N/A   Light Drizzle
1:00 PM 48 °F - 42 °F 73% 29.33 in 16 mi SSE 23.0 mph - - Rain Light Drizzle
1:50 PM 46.4 °F 38.7 °F 42.8 °F 87% 29.27 in 3.1 mi SE 20.7 mph - N/A   Light Drizzle
2:00 PM 46 °F - 44 °F 88% 29.28 in 3 mi SE 20.7 mph - - Rain Light Drizzle
2:50 PM 46.4 °F 38.3 °F 44.6 °F 93% 29.24 in 6.2 mi SSE 23.0 mph - N/A   Mostly Cloudy
3:00 PM 46 °F - 44 °F 89% 29.24 in 7 mi SSE 23.0 mph - -   Mostly Cloudy
3:50 PM 46.4 °F 38.5 °F 44.6 °F 93% 29.18 in 6.2 mi SE 21.9 mph - N/A   Overcast
4:00 PM 46 °F - 44 °F 89% 29.19 in 15 mi SE 21.9 mph - -   Overcast
4:50 PM 46.4 °F 38.1 °F 44.6 °F 93% 29.12 in 6.2 mi SE 24.2 mph - N/A   Scattered Clouds
5:00 PM 46 °F - 44 °F 89% 29.14 in 9 mi SE 24.2 mph - -   Mostly Cloudy
5:50 PM 46.4 °F 38.5 °F 44.6 °F 93% 29.09 in 5.0 mi SE 21.9 mph - N/A   Mostly Cloudy
6:00 PM 46 °F - 44 °F 89% 29.10 in 5 mi SE 21.9 mph - -   Mostly Cloudy
6:50 PM 46.4 °F 38.3 °F 42.8 °F 87% 29.03 in 6.2 mi SE 23.0 mph - N/A   Scattered Clouds
7:00 PM 46 °F - 43 °F 87% 29.05 in 6 mi SE 23.0 mph - -   Mostly Cloudy
7:50 PM 46.4 °F 38.5 °F 42.8 °F 87% 28.97 in 6.2 mi SE 21.9 mph - N/A   Mostly Cloudy
8:00 PM 46 °F - 44 °F 88% 29.00 in 6 mi SE 21.9 mph - -   Mostly Cloudy
8:50 PM 42.8 °F 38.6 °F 41.0 °F 93% 29.00 in 3.1 mi SSW 6.9 mph - N/A   Mostly Cloudy
9:00 PM 43 °F - 41 °F 89% 29.02 in 3 mi SSW 6.9 mph - -   Mostly Cloudy
9:50 PM 41.0 °F 36.4 °F 41.0 °F 100% 29.00 in 6.2 mi SSE 6.9 mph - N/A   Mostly Cloudy
10:00 PM 42 °F - 40 °F 90% 29.01 in 17 mi SSE 6.9 mph - -   Mostly Cloudy
10:50 PM 41.0 °F 35.8 °F 39.2 °F 93% 29.00 in 6.2 mi South 8.1 mph - N/A   Mostly Cloudy
11:00 PM 41 °F - 39 °F 88% 29.02 in 22 mi South 8.1 mph - -   Mostly Cloudy
11:50 PM 41.0 °F 36.4 °F 39.2 °F 93% 29.00 in 6.2 mi South 6.9 mph - N/A   Mostly Cloudy